Regional Weather Roundup
Issued by NWS

Home | Current Version | Previous Version | Text Only | Print | Product List | Glossary On
Versions: 1 2 3 4 5 6 7 8 9 10 11 12 13 14 15 16 17 18 19 20 21 22 23 24 25 26 27 28 29 30 31 32 33 34 35 36 37 38 39 40 41 42 43 44 45 46 47 48 49 50
010
ASUS44 KLIX 260205
RWRLA
LOUISIANA WEATHER ROUNDUP
NATIONAL WEATHER SERVICE NEW ORLEANS LA
900 PM CDT FRI JUL 25 2014

NOTE: "FAIR" INDICATES FEW OR NO CLOUDS BELOW 12,000 FEET WITH NO
      SIGNIFICANT WEATHER AND/OR OBSTRUCTIONS TO VISIBILITY.
      SKY/WX - SKY CONDITION AND SIGNIFICANT WEATHER.
      TMP - AIR TEMPERATURE.    DP   - DEWPOINT TEMPERATURE.
      RH  - RELATIVE HUMIDITY.  PRES - PRESSURE.
      HX  - HEAT INDEX.         WCI  - WIND CHILL INDEX.

*  THESE STATIONS ARE NOT NWS OR FAA STATIONS AND ARE NOT UNDER
   NWS QUALITY CONTROL.

LAZ040-048-061>063-065-066-069-260300-
SOUTHEAST LOUISIANA

CITY           SKY/WX    TMP DP  RH WIND       PRES   REMARKS
N.O. AUDUBON     N/A     81  78  90 MISG        N/A
N.O. INTL ARPT MOCLDY    81  76  84 S6        30.00R
N.O. LAKEFRONT MOCLDY    83  75  77 S8        30.01R
N.O. DOWNTOWN* FAIR      84  73  70 S6        30.01R
SLIDELL        MOCLDY    83  74  74 SW5       29.99R
BATON ROUGE    MOCLDY    82  71  69 S3        29.99R
BOOTHVILLE     PTCLDY    83  76  79 SW9       30.03R
BELLE CHASSE   MOCLDY    80  73  79 SW5       30.01R
BOGALUSA*      RAIN      80  75  85 E3        30.04R
GALLIANO*      NOT AVBL
NEW ROADS*     FAIR      83  76  81 S5        29.98R
GONZALES*      FAIR      77  77 100 CALM      30.00S
HAMMOND*       PTCLDY    81  73  78 S6        30.01R
HOUMA*         MOCLDY    82  73  76 CALM      30.02R
PORT FOURCHON* PTCLDY    84  75  74 SW10      30.04R

$$

LAZ041-044-053-054-260300-
SOUTHWEST LOUISIANA

CITY           SKY/WX    TMP DP  RH WIND       PRES   REMARKS
LAKE CHARLES   PTCLDY    82  76  81 SW3       29.99R
LAFAYETTE      PTCLDY    81  75  82 SW5       29.99R
PATTERSON      CLOUDY    81  75  83 S5        30.05R
SALT POINT       N/A     87  77  72 VRB6      30.01R HX  99
NEW IBERIA     MOCLDY    82  77  84 SW3       30.00R
CHENAULT AIRPK CLEAR     84  73  70 SW6       29.99S

$$

LAZ027-028-260300-
CENTRAL LOUISIANA

CITY           SKY/WX    TMP DP  RH WIND       PRES   REMARKS
FORT POLK      CLEAR     83  76  79 CALM      29.97F
ALEXANDRIA INT CLEAR     83  76  79 CALM      29.95S
ALEXANDRIA     PTCLDY    81  77  88 CALM      29.97S

$$

LAZ001-002-260300-
NORTHWEST LOUISIANA

CITY           SKY/WX    TMP DP  RH WIND       PRES   REMARKS
SHREVEPORT     MOCLDY    83  76  79 CALM      29.96R
BARKSDALE AFB  PTCLDY    82  75  80 SE3       29.96S
DTN SHREVEPORT PTCLDY    82  74  76 CALM      29.96R

$$

LAZ014-016-260300-
NORTHEAST LOUISIANA

CITY           SKY/WX    TMP DP  RH WIND       PRES   REMARKS
MONROE         PTCLDY    81  76  84 E3        29.98R
TALLULAH       CLEAR     77  74  90 E3        29.98S

$$




USA.gov is the U.S. government's official web portal to all federal, state and local government web resources and services.